Location: Earls Croome
(52.0667°N, 2.2000°W)
Time: 15:16:32
(UTC+00:00)

ATLAS CENTAUR R/B - Pass Details

Date: 17 November 2019
Orbit: 457 x 691 km, 64.7° (Epoch: 30 November)

Event Time Altitude Azimuth Distance (km) Brightness Sun altitude
Rises 04:48:41 0° 176° (S) 3,051 5.2 -24.7°
Reaches altitude 10° 04:51:33 10° 160° (SSE) 2,136 4.5 -24.3°
Maximum altitude 04:55:03 20° 114° (ESE) 1,561 4.3 -23.7°
Drops below altitude 10° 04:58:30 10° 68° (ENE) 2,102 5.2 -23.2°
Sets 05:01:17 0° 52° (NE) 2,988 5.8 -22.8°
